Weather reports worldwide

Advertisment
Fair Isle, United Kingdom (3008): temperature & dewpoint: 01.07.2020 20:00:00 - 07.07.2020 20:00:00 (BST)Fair Isle, United Kingdom (3008): temperature -20cm & temperature -100cm: 01.07.2020 20:00:00 - 07.07.2020 20:00:00 (BST)Fair Isle, United Kingdom (3008): wind speed & gusts: 01.07.2020 20:00:00 - 07.07.2020 20:00:00 (BST)Fair Isle, United Kingdom (3008): wind direction: 01.07.2020 20:00:00 - 07.07.2020 20:00:00 (BST)Fair Isle, United Kingdom (3008): reduced air pressure: 01.07.2020 20:00:00 - 07.07.2020 20:00:00 (BST)Fair Isle, United Kingdom (3008): visibility: 01.07.2020 20:00:00 - 07.07.2020 20:00:00 (BST)Fair Isle, United Kingdom (3008): precipitation: 01.07.2020 20:00:00 - 07.07.2020 20:00:00 (BST)
Date & Time tt [°C] td [°C] tt -20cm [°C] tt -100cm [°C] ff [km/h] ff [kn] fx [km/h] fx [kn] dd ppp [hPa] vv [km] rr [mm]
07.07.2020 20:00:00 8,9 7,7 - - 18 10 - - NW 1014,8 30 -
07.07.2020 19:00:00 9,9 7,3 - - 21 11 - - NW 1014,4 30 0,0
07.07.2020 18:00:00 9,9 7,0 - - 24 13 - - NW 1014,2 30 0,0
07.07.2020 17:00:00 10,3 6,4 - - 21 11 - - NW 1014,3 40 0,0
07.07.2020 16:00:00 10,3 8,1 - - 16 9 - - NW 1014,3 27 0,0
07.07.2020 15:00:00 10,7 7,4 - - 22 12 - - WNW 1014,0 35 0,0
07.07.2020 14:00:00 10,9 7,3 - - 21 11 - - NW 1013,6 20 0,0
07.07.2020 13:00:00 10,1 6,6 - - 18 10 - - NW 1013,3 21 0,0
07.07.2020 12:00:00 10,4 7,9 - - 16 9 - - NW 1012,9 22 0,0
07.07.2020 11:00:00 9,8 5,8 - - 22 12 - - WNW 1012,8 21 0,0
07.07.2020 10:00:00 9,6 5,9 12,7 11,7 21 11 46 25 NW 1012,5 30 0,0
07.07.2020 09:00:00 9,4 6,3 - - 26 14 46 25 NW 1012,0 21 0,0
07.07.2020 08:00:00 8,6 6,0 - - 26 14 - - NW 1011,8 40 0,4
07.07.2020 07:00:00 8,3 7,3 - - 21 11 - - NW 1011,7 25 0,6
07.07.2020 06:00:00 8,3 6,4 - - 22 12 - - NW 1011,4 18 0,4
07.07.2020 05:00:00 9,1 5,9 - - 24 13 - - WNW 1011,3 29 0,0
07.07.2020 04:00:00 9,0 5,6 - - 24 13 - - WNW 1011,2 35 0,0
07.07.2020 03:00:00 8,8 4,7 - - 26 14 59 32 WNW 1011,2 35 0,0
07.07.2020 02:00:00 9,0 5,3 - - 34 18 55 30 WNW 1010,9 26 0,0
07.07.2020 01:00:00 9,2 5,7 - - 34 18 57 31 WNW 1010,7 23 0,0
07.07.2020 00:00:00 9,4 6,6 - - 35 19 54 29 WNW 1010,4 22 0,0
06.07.2020 23:00:00 8,9 5,2 - - 35 19 55 30 WNW 1010,5 29 0,2
06.07.2020 22:00:00 9,6 6,1 - - 39 21 54 29 W 1010,2 20 0,0
06.07.2020 21:00:00 9,4 5,4 - - 35 19 54 29 W 1010,3 23 0,0
06.07.2020 20:00:00 9,9 5,7 - - 31 17 54 29 WNW 1010,0 35 0,0
06.07.2020 19:00:00 9,4 8,1 - - 28 15 52 28 W 1009,8 16 0,2
06.07.2020 18:00:00 8,8 8,3 - - 28 15 74 40 W 1009,8 11 2,2
06.07.2020 17:00:00 10,1 8,6 - - 50 27 68 37 WSW 1009,3 8 0,2
06.07.2020 16:00:00 10,7 9,1 - - 41 22 57 31 WSW 1009,9 15 0,0
06.07.2020 15:00:00 10,5 8,4 - - 31 17 55 30 W 1010,5 16 0,0
06.07.2020 14:00:00 10,1 7,8 - - 28 15 50 27 W 1010,6 27 0,0
06.07.2020 13:00:00 10,7 6,0 - - 28 15 50 27 W 1010,3 27 0,0
06.07.2020 12:00:00 10,3 5,6 - - 35 19 65 35 WNW 1009,8 24 0,0
06.07.2020 11:00:00 9,2 4,9 - - 37 20 59 32 WNW 1009,2 21 0,0
06.07.2020 10:00:00 9,5 5,0 13,0 11,7 31 17 55 30 NW 1008,1 21 0,2
06.07.2020 09:00:00 8,3 6,9 - - 34 18 61 33 WNW 1007,4 12 0,0
06.07.2020 08:00:00 10,1 6,6 - - 28 15 57 31 NW 1006,3 22 0,0
06.07.2020 07:00:00 9,6 7,1 - - 34 18 61 33 NW 1005,2 22 0,0
06.07.2020 06:00:00 9,7 5,7 - - 39 21 70 38 NNW 1004,0 30 0,2
06.07.2020 05:00:00 9,7 8,3 - - 37 20 59 32 NNW 1002,9 12 0,2
06.07.2020 04:00:00 10,4 8,5 - - 29 16 48 26 NNW 1001,6 16 0,0
06.07.2020 03:00:00 10,8 9,4 - - 31 17 46 25 NNW 1000,5 18 0,0
06.07.2020 02:00:00 10,8 9,4 - - 34 18 46 25 NNW 999,2 18 0,0
06.07.2020 01:00:00 10,9 9,7 - - 31 17 46 25 NNW 998,0 12 0,0
06.07.2020 00:00:00 10,3 9,7 - - 37 20 52 28 NW 996,7 21 0,0
05.07.2020 23:00:00 10,6 9,7 - - 28 15 - - WNW 995,9 22 0,2
05.07.2020 22:00:00 10,3 9,4 - - 22 12 - - NW 995,4 27 0,2
05.07.2020 21:00:00 9,9 9,3 - - 24 13 - - WNW 994,8 16 0,0
05.07.2020 20:00:00 10,5 8,4 - - 26 14 52 28 WNW 994,3 40 0,2
05.07.2020 19:00:00 11,2 9,4 - - 31 17 46 25 W 993,6 35 0,0
05.07.2020 18:00:00 11,5 8,7 - - 28 15 48 26 WNW 993,3 30 0,0
05.07.2020 17:00:00 10,9 10,1 - - 18 10 - - W 993,1 30 0,4
05.07.2020 16:00:00 10,9 9,1 - - 28 15 - - W 992,8 20 0,6
05.07.2020 15:00:00 10,6 9,2 - - 26 14 - - W 992,5 30 0,2
05.07.2020 14:00:00 10,2 9,5 - - 24 13 - - WNW 992,0 7 0,2
05.07.2020 13:00:00 10,9 9,8 - - 22 12 - - W 991,5 26 0,2
05.07.2020 12:00:00 11,0 10,2 - - 16 9 - - WNW 991,1 25 0,0
05.07.2020 11:00:00 10,7 9,9 - - 15 8 - - W 990,9 20 0,0
05.07.2020 10:00:00 10,5 9,5 13,0 11,7 16 9 - - WNW 990,7 30 0,0
05.07.2020 09:00:00 10,1 9,4 - - 15 8 - - NW 990,3 22 0,2
05.07.2020 08:00:00 10,0 9,7 - - 22 12 - - NW 990,1 14 0,4
05.07.2020 07:00:00 9,9 9,6 - - 16 9 - - NNW 990,1 8 0,2
05.07.2020 06:00:00 9,9 9,8 - - 21 11 - - NNW 989,9 25 0,0
05.07.2020 05:00:00 10,1 10,0 - - 13 7 - - NNE 990,3 15 0,2
05.07.2020 04:00:00 10,0 10,0 - - 5 3 - - NNE 991,2 9 0,6
05.07.2020 03:00:00 10,2 10,1 - - 4 2 - - NE 992,3 3,5 0,6
05.07.2020 02:00:00 10,3 10,2 - - 4 2 - - ENE 993,1 1,3 0,6
05.07.2020 01:00:00 10,5 10,3 - - 4 2 - - ESE 994,6 9 0,8
05.07.2020 00:00:00 10,4 10,1 - - 9 5 - - SSE 996,1 26 0,0
04.07.2020 23:00:00 10,3 10,0 - - 5 3 - - S 997,0 28 0,0
04.07.2020 22:00:00 10,4 10,0 - - 15 8 - - S 997,7 35 0,0
04.07.2020 21:00:00 10,2 9,6 - - 13 7 - - S 998,8 35 0,0
04.07.2020 20:00:00 10,4 10,1 - - 15 8 - - S 999,3 40 0,0
04.07.2020 19:00:00 10,7 10,5 - - 16 9 - - S 999,8 23 0,0
04.07.2020 18:00:00 10,9 10,4 - - 15 8 - - SSW 1000,5 35 0,0
04.07.2020 17:00:00 11,5 9,8 - - 16 9 - - SSW 1000,9 35 0,0
04.07.2020 16:00:00 11,9 10,1 - - 18 10 - - SW 1001,2 30 0,0
04.07.2020 15:00:00 11,8 10,4 - - 18 10 - - S 1001,5 26 0,0
04.07.2020 14:00:00 11,7 10,0 - - 13 7 - - SSW 1001,8 30 0,0
04.07.2020 13:00:00 11,6 10,0 - - 11 6 - - S 1001,8 35 0,0
04.07.2020 12:00:00 11,3 10,8 - - 9 5 - - S 1001,7 22 0,0
04.07.2020 11:00:00 10,7 10,2 - - 11 6 - - SW 1001,9 26 0,0
04.07.2020 10:00:00 10,6 10,1 13,2 11,7 11 6 - - S 1001,7 45 0,0
04.07.2020 09:00:00 10,6 10,2 - - 9 5 - - S 1001,5 30 0,0
04.07.2020 08:00:00 11,1 10,1 - - 11 6 - - SSW 1001,7 45 0,0
04.07.2020 07:00:00 10,7 10,4 - - 11 6 - - S 1002,0 50 0,0
04.07.2020 06:00:00 10,3 10,2 - - 9 5 - - S 1001,8 22 0,0
04.07.2020 05:00:00 10,2 9,7 - - 5 3 - - SSW 1002,0 40 0,0
04.07.2020 04:00:00 10,2 9,0 - - 2 1 - - SSE 1001,9 50 0,0
04.07.2020 03:00:00 11,2 9,4 - - 15 8 - - E 1001,7 45 0,2
04.07.2020 02:00:00 11,0 9,0 - - 13 7 - - E 1001,8 40 0,0
04.07.2020 01:00:00 11,1 8,8 - - 16 9 - - E 1002,1 50 0,0
04.07.2020 00:00:00 10,7 8,9 - - 16 9 - - E 1001,7 35 0,0
03.07.2020 23:00:00 10,2 8,2 - - 15 8 - - E 1001,9 50 0,0
03.07.2020 22:00:00 9,9 9,0 - - 15 8 - - E 1001,8 40 0,0
03.07.2020 21:00:00 10,3 9,7 - - 15 8 - - ENE 1001,8 21 0,2
03.07.2020 20:00:00 10,5 8,7 - - 13 7 - - E 1002,1 18 0,4
03.07.2020 19:00:00 10,9 8,3 - - 18 10 - - E 1002,3 40 0,0
03.07.2020 18:00:00 10,9 8,4 - - 16 9 - - ESE 1002,4 35 0,0
03.07.2020 17:00:00 11,6 7,6 - - 21 11 - - E 1002,3 40 0,0
03.07.2020 16:00:00 11,4 7,4 - - 16 9 - - E 1003,0 40 0,0
03.07.2020 15:00:00 11,4 6,8 - - 15 8 - - ESE 1003,1 45 0,0
03.07.2020 14:00:00 11,9 7,7 - - 11 6 - - ESE 1003,6 50 0,0
03.07.2020 13:00:00 12,3 7,0 - - 8 4 - - ESE 1003,7 45 0,0
03.07.2020 12:00:00 12,0 7,9 - - 11 6 - - SE 1003,9 50 0,0
03.07.2020 11:00:00 11,9 8,1 - - 11 6 - - S 1003,8 50 0,0
03.07.2020 10:00:00 11,1 8,2 13,0 11,7 13 7 - - SW 1004,3 30 0,0
03.07.2020 09:00:00 11,5 8,9 - - 15 8 - - SW 1004,3 30 0,0
03.07.2020 08:00:00 11,0 8,0 - - 9 5 - - WSW 1004,7 40 0,0
03.07.2020 07:00:00 10,0 7,1 - - 11 6 - - WSW 1005,1 50 0,0
03.07.2020 06:00:00 9,6 6,9 - - 11 6 - - WSW 1005,3 45 0,0
03.07.2020 05:00:00 9,9 6,7 - - 9 5 - - W 1005,6 45 0,0
03.07.2020 04:00:00 9,5 7,2 - - 13 7 - - WNW 1005,8 50 0,0
03.07.2020 03:00:00 9,3 7,6 - - 18 10 - - WSW 1006,3 35 0,0
03.07.2020 02:00:00 9,5 6,8 - - 18 10 - - W 1006,8 35 0,0
03.07.2020 01:00:00 9,7 7,6 - - 21 11 - - W 1007,4 30 0,0
03.07.2020 00:00:00 9,7 7,3 - - 24 13 - - W 1007,6 26 0,0
02.07.2020 23:00:00 9,8 6,0 - - 28 15 - - W 1007,7 30 0,0
02.07.2020 22:00:00 9,8 5,8 - - 29 16 - - WSW 1007,8 28 0,0
02.07.2020 21:00:00 9,9 6,4 - - 28 15 - - W 1008,2 24 0,0
02.07.2020 20:00:00 10,3 5,5 - - 34 18 46 25 W 1008,2 35 0,0
02.07.2020 19:00:00 11,0 6,3 - - 31 17 - - W 1008,3 24 0,0
02.07.2020 18:00:00 11,6 7,2 - - 29 16 - - W 1008,3 35 0,0
02.07.2020 17:00:00 11,7 7,1 - - 29 16 - - WSW 1008,6 35 0,0
02.07.2020 16:00:00 10,7 7,0 - - 29 16 54 29 W 1008,7 35 0,0
02.07.2020 15:00:00 11,6 8,1 - - 34 18 46 25 W 1008,8 45 0,0
02.07.2020 14:00:00 10,3 6,7 - - 29 16 - - W 1008,9 29 0,0
02.07.2020 13:00:00 11,6 6,4 - - 21 11 - - W 1008,5 35 0,0
02.07.2020 12:00:00 11,4 7,2 - - 22 12 - - W 1008,5 35 0,0
02.07.2020 11:00:00 10,1 6,8 - - 16 9 - - W 1008,5 45 0,0
02.07.2020 10:00:00 9,2 5,4 13,2 11,7 24 13 - - W 1008,2 50 0,0
02.07.2020 09:00:00 7,3 5,8 - - 24 13 - - WNW 1008,1 10 0,4
02.07.2020 08:00:00 7,5 6,2 - - 18 10 - - WNW 1007,8 50 0,2
02.07.2020 07:00:00 8,0 6,2 - - 16 9 - - WNW 1007,6 40 0,2
02.07.2020 06:00:00 7,6 5,6 - - 16 9 - - W 1007,3 26 0,0
02.07.2020 05:00:00 7,2 4,0 - - 15 8 - - NW 1007,4 50 0,2
02.07.2020 04:00:00 7,9 3,7 - - 21 11 - - WNW 1007,5 50 0,0
02.07.2020 03:00:00 7,8 3,7 - - 16 9 - - WNW 1007,6 50 0,0
02.07.2020 02:00:00 7,4 4,0 - - 15 8 - - NW 1007,8 50 0,2
02.07.2020 01:00:00 7,0 5,5 - - 24 13 - - WNW 1007,9 12 0,2
02.07.2020 00:00:00 7,8 5,4 - - 16 9 - - WNW 1008,0 12 0,0
01.07.2020 23:00:00 8,4 4,2 - - 21 11 - - NNW 1007,7 50 0,0
01.07.2020 22:00:00 8,5 4,1 - - 22 12 - - NW 1007,4 50 0,0
01.07.2020 21:00:00 8,5 6,1 - - 15 8 - - NW 1007,2 40 0,0
01.07.2020 20:00:00 9,1 5,1 - - 18 10 - - NNW 1007,0 50 0,0

tt = temperature
td = dewpoint
tt -20cm = temperature -20cm
tt -100cm = temperature -100cm
ff = wind speed
fx = gusts
dd = wind direction
ppp = reduced air pressure
vv = visibility
rr = precipitation

Next stations